IRIDIUM 90 [-] (27373 NORAD) Tracking and Keplerian Element Data

This shows tracking and keplerian element data for the satellite.

Feedback or suggestion? Click here.




ElementValue
Catalog27373
NameIRIDIUM 90 [-]
Epoch Orbit86954
Epoch Day198.92524887
Epoch Year2018
RAAN175.8816
Inclination86.4322
Eccentricity0.0271403
Argument of Perigee218.4672
Mean Anonmoly139.6968
Mean Motion15.44756563
Decay Rate0.00044896
L11 27373U 02005B 18198.92524887 .00044896 -61352-6 21706-3 0 9995
L22 27373 86.4322 175.8816 0271403 218.4672 139.6968 15.44756563869542

Live tracking and technical data element details for IRIDIUM 90 [-] (NORAD 27373). IRIDIUM 90 [-] can be tracked NOW for your location showing map with azimuth and elevation plus other details from your city location.

Track the satellite on the map from your city or location and see movement details for azimuth, elevation, latitude, longitude, range, height, and movement on the map or in text.







IsCatalogInMostPopularTable: catalog: 27373, numindb: 37
Update: records affected: 1



GetName: 27373 IRIDIUM 90 [-]

Hit Count: updated at: Fri, 20 Jul 2018 07:03:36 GMT